Weather History for Iowa Falls, IA

Change the Weather History Date:

Sunday, July 15, 2012

  Actual Average Record
Temperature  
Mean Temperature 77 °F -  
Max Temperature 91 °F 85 °F 101 °F (1988)
Min Temperature 63 °F 61 °F 48 °F (1967)
Cooling Degree Days 12    
Growing Degree Days 27 (Base 50)    
Moisture  
Dew Point 67 °F    
Average Humidity 71    
Maximum Humidity 93    
Minimum Humidity 41    
Precipitation  
Precipitation 0.00 in - - ()
Sea Level Pressure  
Sea Level Pressure 30.04 in    
Wind  
Wind Speed 2 mph (ESE)    
Max Wind Speed 8 mph    
Max Gust Speed -    
Visibility 9 miles    
Events      
Averages and records for this station are not official NWS values.
T = Trace of Precipitation, MM = Missing Value Source: NWS Daily Summary

Daily Weather History Graph

Daily Weather History Graph

Search for Another Location

Airport:

Trip Planner

Search our weather history database for the weather conditions in past years. The results will help you decide how hot, cold, wet, or windy it might be!

Date:

Astronomy

Jul. 15, 2012 Rise Set
Actual Time 5:49 AM CDT 8:48 PM CDT
Civil Twilight 5:16 AM CDT 9:21 PM CDT
Nautical Twilight 4:33 AM CDT 10:04 PM CDT
Astronomical Twilight 3:42 AM CDT 10:54 PM CDT
Moon 2:46 AM CDT (7/15) 6:05 PM CDT (7/15)
Length of Visible Light 16h 05m
Length of Day
14h 58m
Waning Crescent, 11% of the Moon is Illuminated
Jul 15
Waning Crescent
Jul 18
New
Jul 26
First Quarter
Aug 1
Full
Aug 9
Last Quarter

Hourly Weather History & Observations

Time (CDT) Temp. Heat Index Dew Point Humidity Pressure Visibility Wind Dir Wind Speed Gust Speed Precip Events Conditions
12:15 AM 68.5 °F - 64.6 °F 87% 30.05 in 10.0 mi Calm Calm - N/A   Unknown
12:35 AM 66.4 °F - 63.5 °F 90% 30.06 in 10.0 mi Calm Calm - N/A   Unknown
1:15 AM 67.1 °F - 64.0 °F 90% 30.07 in 10.0 mi Calm Calm - N/A   Unknown
1:55 AM 66.2 °F - 63.1 °F 90% 30.06 in 10.0 mi Calm Calm - N/A   Unknown
2:15 AM 66.2 °F - 62.8 °F 89% 30.06 in 10.0 mi Calm Calm - N/A   Unknown
2:35 AM 66.0 °F - 62.6 °F 89% 30.06 in 10.0 mi North 3.5 mph - N/A   Unknown
2:55 AM 65.3 °F - 62.4 °F 90% 30.06 in 10.0 mi Calm Calm - N/A   Unknown
3:15 AM 65.3 °F - 61.7 °F 88% 30.06 in 10.0 mi Calm Calm - N/A   Unknown
3:35 AM 65.7 °F - 62.6 °F 90% 30.05 in 10.0 mi Calm Calm - N/A   Unknown
3:55 AM 65.5 °F - 62.6 °F 90% 30.04 in 10.0 mi Calm Calm - N/A   Unknown
4:15 AM 65.1 °F - 62.6 °F 92% 30.05 in 7.0 mi Calm Calm - N/A   Unknown
4:35 AM 64.8 °F - 62.4 °F 92% 30.05 in 4.0 mi Calm Calm - N/A   Mist
4:55 AM 63.5 °F - 61.2 °F 92% 30.05 in 10.0 mi Calm Calm - N/A   Unknown
5:15 AM 64.0 °F - 61.7 °F 92% 30.05 in 5.0 mi Calm Calm - N/A   Mist
5:35 AM 64.6 °F - 62.4 °F 93% 30.06 in 5.0 mi Calm Calm - N/A   Mist
5:55 AM 64.0 °F - 61.5 °F 91% 30.05 in 7.0 mi Calm Calm - N/A   Unknown
6:15 AM 63.5 °F - 61.0 °F 91% 30.05 in 4.0 mi Calm Calm - N/A   Mist
6:35 AM 63.1 °F - 60.8 °F 92% 30.06 in 5.0 mi Calm Calm - N/A   Mist
6:55 AM 64.4 °F - 61.9 °F 92% 30.06 in 5.0 mi Calm Calm - N/A   Mist
7:15 AM 66.7 °F - 64.0 °F 91% 30.07 in 7.0 mi Calm Calm - N/A   Unknown
7:35 AM 70.2 °F - 66.2 °F 87% 30.07 in 7.0 mi Calm Calm - N/A   Unknown
7:55 AM 72.5 °F - 66.9 °F 83% 30.08 in 10.0 mi NE 3.5 mph - N/A   Unknown
8:15 AM 74.3 °F - 67.6 °F 80% 30.08 in 10.0 mi Calm Calm - N/A   Unknown
8:35 AM 76.1 °F - 68.9 °F 78% 30.08 in 10.0 mi ENE 4.6 mph - N/A   Unknown
8:55 AM 77.5 °F - 69.8 °F 77% 30.09 in 10.0 mi Calm Calm - N/A   Unknown
9:15 AM 79.7 °F - 70.2 °F 73% 30.09 in 10.0 mi SE 3.5 mph - N/A   Unknown
9:35 AM 81.0 °F 84.6 °F 70.5 °F 70% 30.09 in 10.0 mi Calm Calm - N/A   Unknown
9:55 AM 82.2 °F 86.0 °F 70.0 °F 66% 30.09 in 10.0 mi ESE 3.5 mph - N/A   Unknown
10:15 AM 83.3 °F 86.6 °F 68.7 °F 61% 30.09 in 10.0 mi ESE 4.6 mph - N/A   Unknown
10:35 AM 83.8 °F 87.5 °F 69.3 °F 61% 30.09 in 10.0 mi East 4.6 mph - N/A   Unknown
10:55 AM 85.1 °F 88.8 °F 68.7 °F 58% 30.08 in 10.0 mi East 4.6 mph - N/A   Unknown
11:15 AM 85.5 °F 88.8 °F 68.0 °F 56% 30.08 in 10.0 mi ESE 4.6 mph - N/A   Unknown
11:35 AM 86.0 °F 90.1 °F 69.3 °F 57% 30.08 in 10.0 mi ESE 6.9 mph - N/A   Unknown
11:55 AM 86.9 °F 91.0 °F 68.7 °F 55% 30.08 in 10.0 mi ESE 5.8 mph - N/A   Unknown
12:15 PM 87.3 °F 90.5 °F 67.8 °F 52% 30.08 in 10.0 mi ESE 4.6 mph - N/A   Unknown
12:35 PM 87.1 °F 90.2 °F 67.6 °F 52% 30.08 in 10.0 mi ESE 4.6 mph - N/A   Unknown
12:55 PM 87.6 °F 90.8 °F 67.5 °F 51% 30.07 in 10.0 mi SE 8.1 mph - N/A   Unknown
1:15 PM 88.2 °F 92.1 °F 68.4 °F 52% 30.06 in 10.0 mi ESE 5.8 mph - N/A   Unknown
1:35 PM 88.7 °F 91.1 °F 65.8 °F 47% 30.06 in 10.0 mi SSE 5.8 mph - N/A   Unknown
1:55 PM 89.6 °F 92.6 °F 66.9 °F 47% 30.06 in 10.0 mi SSE 3.5 mph - N/A   Unknown
2:15 PM 89.8 °F 92.5 °F 66.4 °F 46% 30.05 in 10.0 mi East 4.6 mph - N/A   Unknown
2:35 PM 89.6 °F 93.0 °F 67.5 °F 48% 30.04 in 10.0 mi ESE 4.6 mph - N/A   Unknown
2:55 PM 88.7 °F 92.2 °F 67.8 °F 50% 30.04 in 10.0 mi SE 3.5 mph - N/A   Unknown
3:15 PM 88.5 °F 91.9 °F 68.0 °F 50% 30.03 in 10.0 mi SE 3.5 mph - N/A   Unknown
3:35 PM 90.7 °F 93.6 °F 66.6 °F 45% 30.03 in 10.0 mi SE 4.6 mph - N/A   Unknown
3:55 PM 90.3 °F 92.6 °F 65.7 °F 44% 30.03 in 10.0 mi South 5.8 mph - N/A   Unknown
4:15 PM 90.3 °F 93.4 °F 67.1 °F 46% 30.02 in 10.0 mi South 3.5 mph - N/A   Unknown
4:35 PM 90.9 °F 94.4 °F 67.3 °F 46% 30.02 in 10.0 mi South 3.5 mph - N/A   Unknown
4:55 PM 91.2 °F 92.9 °F 64.8 °F 41% 30.01 in 10.0 mi South 4.6 mph - N/A   Unknown
5:15 PM 91.4 °F 95.8 °F 68.4 °F 47% 30.00 in 10.0 mi SSE 5.8 mph - N/A   Unknown
5:35 PM 90.0 °F 93.2 °F 67.3 °F 47% 30.00 in 10.0 mi Calm Calm - N/A   Unknown
5:55 PM 90.5 °F 94.2 °F 68.0 °F 47% 30.00 in 10.0 mi Calm Calm - N/A   Unknown
6:15 PM 90.0 °F 93.2 °F 67.1 °F 47% 30.00 in 10.0 mi Calm Calm - N/A   Unknown
6:35 PM 90.5 °F 93.3 °F 66.6 °F 45% 29.99 in 10.0 mi Calm Calm - N/A   Unknown
6:55 PM 90.0 °F 92.4 °F 66.2 °F 45% 29.99 in 10.0 mi Calm Calm - N/A   Unknown
7:15 PM 88.0 °F 93.8 °F 71.1 °F 57% 29.99 in 10.0 mi East 3.5 mph - N/A   Unknown
7:35 PM 86.4 °F 94.2 °F 73.6 °F 66% 29.99 in 10.0 mi East 3.5 mph - N/A   Unknown
7:55 PM 85.1 °F 92.2 °F 73.6 °F 68% 29.99 in 10.0 mi ESE 3.5 mph - N/A   Unknown
8:35 PM 81.7 °F 87.1 °F 73.4 °F 76% 29.99 in 10.0 mi ESE 4.6 mph - N/A   Unknown
8:55 PM 79.3 °F - 73.0 °F 81% 29.99 in 10.0 mi ESE 4.6 mph - N/A   Unknown
9:15 PM 77.7 °F - 72.5 °F 84% 29.99 in 10.0 mi ESE 4.6 mph - N/A   Unknown
9:35 PM 76.8 °F - 72.5 °F 86% 30.00 in 10.0 mi ESE 5.8 mph - N/A   Unknown
9:55 PM 76.5 °F - 72.1 °F 86% 30.00 in 10.0 mi ESE 4.6 mph - N/A   Unknown
10:15 PM 75.7 °F - 71.6 °F 87% 30.00 in 10.0 mi ESE 4.6 mph - N/A   Unknown
10:35 PM 74.8 °F - 71.1 °F 88% 30.01 in 10.0 mi ESE 3.5 mph - N/A   Unknown
10:55 PM 74.3 °F - 70.7 °F 88% 30.01 in 10.0 mi ESE 4.6 mph - N/A   Unknown
11:15 PM 74.7 °F - 70.3 °F 86% 30.01 in 10.0 mi SE 5.8 mph - N/A   Unknown
11:35 PM 74.5 °F - 70.0 °F 86% 30.01 in 10.0 mi SE 3.5 mph - N/A   Unknown
11:55 PM 75.6 °F - 70.0 °F 83% 30.01 in 10.0 mi SE 5.8 mph - N/A   Unknown